Cambridge, MD

5:55 AM EDT on September 24, 2017 (GMT -0400)
Cambridge-Dorchester

Weather History for KCGE - December, 2013

Change the Weather History Date:

Sunday, December 29, 2013

  Actual Average (KESN) Record (KESN)
Temperature  
Mean Temperature 50 °F -  
Max Temperature 59 °F 48 °F 60 °F (1954)
Min Temperature 42 °F 29 °F 14 °F (1955)
Degree Days  
Heating Degree Days 14    
Moisture  
Dew Point 43 °F    
Average Humidity 82    
Maximum Humidity 94    
Minimum Humidity 54    
Precipitation  
Precipitation 0.00 in - - ()
Sea Level Pressure  
Sea Level Pressure 29.83 in    
Wind  
Wind Speed 6 mph (SSW)    
Max Wind Speed 22 mph    
Max Gust Speed 34 mph    
Visibility 8 miles    
Events      
Averages and records for this station are not official NWS values.
T = Trace of Precipitation, MM = Missing Value Source: NWS Daily Summary

Daily Weather History Graph

Daily Weather History Graph

Search for Another Location

Airport or City:

Trip Planner

Search our weather history database for the weather conditions in past years. The results will help you decide how hot, cold, wet, or windy it might be!

Date:

Astronomy

Dec. 29, 2013 Rise Set
Actual Time 7:21 AM EST 4:51 PM EST
Civil Twilight 6:51 AM EST 5:21 PM EST
Nautical Twilight 6:18 AM EST 5:54 PM EST
Astronomical Twilight 5:45 AM EST 6:26 PM EST
Moon 4:03 AM EST (12/29) 2:26 PM EST (12/29)
Length of Visible Light 10h 29m
Length of Day
9h 30m
Waning Crescent, 11% of the Moon is Illuminated
Dec 29
Waning Crescent
Jan 1
New
Jan 7
First Quarter
Jan 15
Full
Jan 24
Last Quarter

Hourly Weather History & Observations

Time (EST) Temp. Windchill Dew Point Humidity Pressure Visibility Wind Dir Wind Speed Gust Speed Precip Events Conditions
12:14 AM 42.8 °F 41.1 °F 33.8 °F 70% 30.14 in 10.0 mi SSE 3.5 mph - N/A   Clear
12:34 AM 42.8 °F 40.1 °F 33.8 °F 70% 30.12 in 10.0 mi SE 4.6 mph - N/A   Clear
12:54 AM 42.8 °F - 35.6 °F 76% 30.12 in 10.0 mi Calm Calm - N/A   Clear
1:14 AM 42.8 °F 41.1 °F 33.8 °F 70% 30.12 in 10.0 mi SSE 3.5 mph - N/A   Clear
1:35 AM 42.8 °F - 33.8 °F 70% 30.12 in 10.0 mi Calm Calm - N/A   Clear
1:55 AM 42.8 °F 40.1 °F 33.8 °F 70% 30.12 in 10.0 mi South 4.6 mph - N/A   Clear
2:15 AM 42.8 °F 40.1 °F 33.8 °F 70% 30.11 in 10.0 mi SSE 4.6 mph - N/A   Clear
2:35 AM 44.6 °F 41.4 °F 33.8 °F 66% 30.11 in 10.0 mi South 5.8 mph - N/A   Clear
2:55 AM 44.6 °F 41.4 °F 32.0 °F 61% 30.10 in 10.0 mi South 5.8 mph - N/A   Clear
3:15 AM 44.6 °F 42.2 °F 33.8 °F 66% 30.09 in 10.0 mi South 4.6 mph - N/A   Clear
3:35 AM 46.4 °F - 32.0 °F 57% 30.10 in 10.0 mi Calm Calm - N/A   Clear
3:55 AM 48.2 °F - 32.0 °F 54% 30.09 in 10.0 mi Calm Calm - N/A   Clear
4:15 AM 48.2 °F - 32.0 °F 54% 30.08 in 10.0 mi South 5.8 mph - N/A   Clear
4:35 AM 48.2 °F - 33.8 °F 58% 30.07 in 10.0 mi South 4.6 mph - N/A   Scattered Clouds
4:55 AM 46.4 °F 45.2 °F 35.6 °F 66% 30.07 in 10.0 mi South 3.5 mph - N/A   Scattered Clouds
5:15 AM 44.6 °F - 35.6 °F 71% 30.07 in 10.0 mi Calm Calm - N/A   Mostly Cloudy
5:35 AM 44.6 °F - 37.4 °F 76% 30.07 in 10.0 mi Calm Calm - N/A   Mostly Cloudy
5:55 AM 42.8 °F - 37.4 °F 81% 30.05 in 7.0 mi Calm Calm - N/A   Mostly Cloudy
6:15 AM 42.8 °F - 41.0 °F 93% 30.05 in 7.0 mi Calm Calm - N/A   Mostly Cloudy
6:35 AM 42.8 °F 41.1 °F 41.0 °F 93% 30.03 in 7.0 mi NE 3.5 mph - N/A   Mostly Cloudy
6:55 AM 42.8 °F - 41.0 °F 93% 30.01 in 10.0 mi Calm Calm - N/A   Scattered Clouds
7:15 AM 42.8 °F - 41.0 °F 93% 30.00 in 10.0 mi Calm Calm - N/A   Scattered Clouds
7:35 AM 42.8 °F - 41.0 °F 93% 29.99 in 7.0 mi Calm Calm - N/A   Mostly Cloudy
7:55 AM 42.8 °F 41.1 °F 41.0 °F 93% 29.98 in 4.0 mi ESE 3.5 mph - N/A   Mostly Cloudy
8:15 AM 44.6 °F 42.2 °F 41.0 °F 87% 29.95 in 3.0 mi East 4.6 mph - N/A   Overcast
8:35 AM 44.6 °F 43.1 °F 41.0 °F 87% 29.95 in 5.0 mi East 3.5 mph - N/A   Overcast
8:55 AM 44.6 °F 39.7 °F 41.0 °F 87% 29.92 in 4.0 mi East 9.2 mph - N/A   Overcast
9:15 AM 44.6 °F 40.2 °F 42.8 °F 93% 29.90 in 7.0 mi East 8.1 mph - N/A   Overcast
9:35 AM 46.4 °F 41.5 °F 42.8 °F 87% 29.89 in 10.0 mi ESE 10.4 mph - N/A   Overcast
9:55 AM 46.4 °F 41.5 °F 44.6 °F 93% 29.87 in 7.0 mi ESE 10.4 mph - N/A   Overcast
10:16 AM 48.2 °F - 44.6 °F 87% 29.85 in 7.0 mi ESE 8.1 mph - N/A   Overcast
10:36 AM 48.2 °F - 44.6 °F 87% 29.85 in 3.0 mi ESE 10.4 mph - N/A   Overcast
10:56 AM 51.8 °F - 48.2 °F 88% 29.80 in 3.0 mi ESE 11.5 mph - N/A   Overcast
11:16 AM 51.8 °F - 48.2 °F 88% 29.75 in 2.5 mi ESE 15.0 mph - N/A   Overcast
11:36 AM 51.8 °F - 48.2 °F 88% 29.70 in 3.0 mi ESE 12.7 mph 19.6 mph N/A   Overcast
11:56 AM 51.8 °F - 48.2 °F 88% 29.67 in 3.0 mi ESE 16.1 mph 20.7 mph N/A   Overcast
12:16 PM 51.8 °F - 48.2 °F 88% 29.63 in 1.8 mi ESE 16.1 mph 21.9 mph N/A   Overcast
12:36 PM 51.8 °F - 50.0 °F 94% 29.61 in 2.5 mi ESE 10.4 mph - N/A   Overcast
12:56 PM 53.6 °F - 51.8 °F 94% 29.57 in 2.0 mi SSE 6.9 mph - N/A   Overcast
1:16 PM 57.2 °F - 53.6 °F 88% - 5.0 mi South 18.4 mph 26.5 mph N/A   Overcast
1:36 PM 59.0 °F - 55.4 °F 88% 29.51 in 5.0 mi South 21.9 mph 34.5 mph N/A   Overcast
1:56 PM 59.0 °F - 55.4 °F 88% 29.49 in 5.0 mi South 19.6 mph 31.1 mph N/A   Overcast
2:16 PM 59.0 °F - 55.4 °F 88% 29.53 in 1.2 mi SW 12.7 mph 28.8 mph N/A   Overcast
2:36 PM 55.4 °F - 53.6 °F 94% 29.53 in 4.0 mi SW 9.2 mph - N/A   Overcast
2:56 PM 55.4 °F - 53.6 °F 94% 29.54 in 5.0 mi SW 8.1 mph - N/A   Overcast
3:16 PM 55.4 °F - 53.6 °F 94% 29.54 in 10.0 mi WSW 9.2 mph 17.3 mph N/A   Overcast
3:36 PM 55.4 °F - 53.6 °F 94% 29.54 in 10.0 mi West 8.1 mph - N/A   Overcast
3:56 PM 53.6 °F - 50.0 °F 88% 29.54 in 10.0 mi West 5.8 mph - N/A   Mostly Cloudy
4:16 PM 51.8 °F - 50.0 °F 94% 29.53 in 10.0 mi West 4.6 mph - N/A   Clear
4:36 PM 51.8 °F - 48.2 °F 88% 29.56 in 10.0 mi West 9.2 mph - N/A   Scattered Clouds
4:56 PM 51.8 °F - 46.4 °F 82% 29.58 in 10.0 mi West 11.5 mph 18.4 mph N/A   Mostly Cloudy
5:16 PM 51.8 °F - 46.4 °F 82% 29.60 in 10.0 mi West 10.4 mph 16.1 mph N/A   Overcast
5:36 PM 51.8 °F - 46.4 °F 82% 29.62 in 10.0 mi West 12.7 mph 20.7 mph N/A   Overcast
5:56 PM 51.8 °F - 46.4 °F 82% 29.65 in 10.0 mi West 9.2 mph 16.1 mph N/A   Overcast
6:16 PM 51.8 °F - 46.4 °F 82% 29.66 in 10.0 mi West 6.9 mph - N/A   Overcast
6:37 PM 48.2 °F - 44.6 °F 87% 29.68 in 10.0 mi West 8.1 mph - N/A   Mostly Cloudy
6:57 PM 48.2 °F - 44.6 °F 87% 29.69 in 10.0 mi West 8.1 mph - N/A   Scattered Clouds
7:17 PM 48.2 °F - 44.6 °F 87% 29.70 in 10.0 mi West 10.4 mph - N/A   Clear
7:37 PM 48.2 °F - 44.6 °F 87% 29.72 in 10.0 mi West 5.8 mph - N/A   Scattered Clouds
7:57 PM 48.2 °F - 44.6 °F 87% 29.74 in 10.0 mi West 4.6 mph - N/A   Scattered Clouds
8:17 PM 48.2 °F - 44.6 °F 87% 29.74 in 10.0 mi West 5.8 mph - N/A   Mostly Cloudy
8:37 PM 48.2 °F - 44.6 °F 87% 29.75 in 10.0 mi West 9.2 mph - N/A   Overcast
8:57 PM 50.0 °F - 44.6 °F 82% 29.76 in 10.0 mi WNW 9.2 mph - N/A   Mostly Cloudy
9:17 PM 50.0 °F - 42.8 °F 76% 29.76 in 10.0 mi West 5.8 mph - N/A   Clear
9:37 PM 48.2 °F - 42.8 °F 82% 29.77 in 10.0 mi WNW 8.1 mph - N/A   Clear
9:57 PM 50.0 °F - 41.0 °F 71% 29.79 in 10.0 mi WNW 9.2 mph 17.3 mph N/A   Clear
10:17 PM 48.2 °F - 41.0 °F 76% 29.80 in 10.0 mi NW 9.2 mph - N/A   Clear
10:37 PM 46.4 °F 43.5 °F 41.0 °F 81% 29.82 in 10.0 mi WNW 5.8 mph - N/A   Clear
10:57 PM 46.4 °F 44.3 °F 41.0 °F 81% 29.81 in 10.0 mi WNW 4.6 mph - N/A   Clear
11:17 PM 46.4 °F 45.2 °F 41.0 °F 81% 29.81 in 10.0 mi WNW 3.5 mph - N/A   Clear
11:37 PM 44.6 °F 42.2 °F 39.2 °F 81% 29.84 in 10.0 mi WSW 4.6 mph - N/A   Clear
11:57 PM 44.6 °F - 37.4 °F 76% 29.84 in 10.0 mi Calm Calm - N/A   Clear